Rogers City, MI

7:35 AM EDT on September 23, 2017 (GMT -0400)
Presque Isle County

Weather History for KPZQ - September, 2013

Change the Weather History Date:

Saturday, September 28, 2013

  Actual Average (KAPN) Record (KAPN)
Temperature  
Mean Temperature 65 °F -  
Max Temperature 76 °F 63 °F 84 °F (1952)
Min Temperature 54 °F 40 °F 23 °F (1957)
Growing Degree Days 15 (Base 50)    
Moisture  
Dew Point 55 °F    
Average Humidity 75    
Maximum Humidity 97    
Minimum Humidity 40    
Precipitation  
Precipitation 0.00 in - - ()
Sea Level Pressure  
Sea Level Pressure 30.10 in    
Wind  
Wind Speed 9 mph (SSE)    
Max Wind Speed 17 mph    
Max Gust Speed 25 mph    
Visibility 9 miles    
Events Fog    
Averages and records for this station are not official NWS values.
T = Trace of Precipitation, MM = Missing Value Source: NWS Daily Summary

Daily Weather History Graph

Daily Weather History Graph

Search for Another Location

Airport or City:

Trip Planner

Search our weather history database for the weather conditions in past years. The results will help you decide how hot, cold, wet, or windy it might be!

Date:

Astronomy

Sep. 28, 2013 Rise Set
Actual Time 7:29 AM EDT 7:20 PM EDT
Civil Twilight 7:00 AM EDT 7:50 PM EDT
Nautical Twilight 6:26 AM EDT 8:24 PM EDT
Astronomical Twilight 5:51 AM EDT 8:59 PM EDT
Moon 1:01 AM EDT (9/28) 3:52 PM EDT (9/28)
Length of Visible Light 12h 49m
Length of Day
11h 50m
Last Quarter, 36% of the Moon is Illuminated
Sep 28
Last Quarter
Oct 4
New
Oct 11
First Quarter
Oct 18
Full
Oct 26
Last Quarter

Hourly Weather History & Observations

Time (EDT) Temp. Dew Point Humidity Pressure Visibility Wind Dir Wind Speed Gust Speed Precip Events Conditions
12:14 AM 57.9 °F 51.4 °F 79% 30.20 in 10.0 mi SE 4.6 mph - N/A   Clear
12:35 AM 57.0 °F 51.4 °F 82% 30.20 in 10.0 mi SSE 5.8 mph - N/A   Clear
12:54 AM 57.7 °F 51.6 °F 80% 30.20 in 10.0 mi SSE 6.9 mph - N/A   Clear
1:15 AM 58.3 °F 52.0 °F 80% 30.19 in 10.0 mi SSE 8.1 mph - N/A   Clear
1:34 AM 59.0 °F 52.0 °F 78% 30.19 in 10.0 mi South 8.1 mph - N/A   Clear
1:55 AM 59.0 °F 52.2 °F 78% 30.19 in 10.0 mi South 9.2 mph - N/A   Clear
2:15 AM 59.0 °F 52.7 °F 80% 30.20 in 10.0 mi South 8.1 mph - N/A   Clear
2:34 AM 58.6 °F 53.6 °F 83% 30.20 in 10.0 mi South 8.1 mph - N/A   Clear
2:55 AM 58.1 °F 53.6 °F 85% 30.20 in 10.0 mi South 6.9 mph - N/A   Clear
3:15 AM 57.6 °F 53.6 °F 87% 30.19 in 10.0 mi SSE 4.6 mph - N/A   Clear
3:34 AM 56.8 °F 53.2 °F 88% 30.20 in 10.0 mi South 4.6 mph - N/A   Clear
3:55 AM 56.5 °F 53.1 °F 88% 30.19 in 10.0 mi SSE 6.9 mph - N/A   Clear
4:15 AM 55.9 °F 53.1 °F 90% 30.19 in 10.0 mi SSE 5.8 mph - N/A   Clear
4:35 AM 55.6 °F 53.2 °F 92% 30.19 in 10.0 mi SSE 5.8 mph - N/A   Clear
4:55 AM 56.5 °F 54.1 °F 92% 30.18 in 10.0 mi South 8.1 mph - N/A   Clear
5:14 AM 57.2 °F 54.7 °F 91% 30.19 in 10.0 mi South 6.9 mph - N/A   Clear
5:35 AM 56.7 °F 54.5 °F 92% 30.19 in 10.0 mi South 6.9 mph - N/A   Clear
5:55 AM 56.5 °F 54.5 °F 93% 30.19 in 10.0 mi South 9.2 mph - N/A   Clear
6:14 AM 57.0 °F 54.7 °F 92% 30.19 in 10.0 mi South 9.2 mph - N/A   Clear
6:35 AM 57.0 °F 54.5 °F 91% 30.19 in 10.0 mi South 9.2 mph - N/A   Clear
6:54 AM 56.3 °F 54.1 °F 92% 30.19 in 10.0 mi South 5.8 mph - N/A   Clear
7:15 AM 55.2 °F 53.2 °F 93% 30.20 in 10.0 mi SSE 4.6 mph - N/A   Clear
7:35 AM 54.5 °F 52.7 °F 94% 30.20 in 7.0 mi SSE 4.6 mph - N/A   Clear
7:54 AM 54.1 °F 52.7 °F 95% 30.22 in 5.0 mi SSE 3.5 mph - N/A   Scattered Clouds
8:15 AM 54.5 °F 53.1 °F 95% 30.21 in 0.2 mi SSE 5.8 mph - N/A Fog Fog
8:35 AM 54.1 °F 52.9 °F 95% 30.21 in 1.0 mi South 8.1 mph - N/A   Overcast
8:54 AM 54.5 °F 53.6 °F 97% 30.20 in 0.5 mi South 8.1 mph - N/A Fog Fog
9:15 AM 55.4 °F 54.5 °F 97% 30.20 in 0.5 mi South 5.8 mph - N/A Fog Fog
9:35 AM 56.1 °F 54.9 °F 96% 30.20 in 2.5 mi South 10.4 mph - N/A   Overcast
9:55 AM 57.2 °F 56.1 °F 96% 30.19 in 4.0 mi South 8.1 mph - N/A   Overcast
10:15 AM 59.0 °F 57.2 °F 94% 30.18 in 7.0 mi South 12.7 mph 17.3 mph N/A   Mostly Cloudy
10:35 AM 60.6 °F 57.6 °F 90% 30.18 in 7.0 mi South 8.1 mph - N/A   Scattered Clouds
10:55 AM 63.1 °F 58.1 °F 84% 30.18 in 10.0 mi SSE 8.1 mph - N/A   Clear
11:15 AM 65.1 °F 58.1 °F 78% 30.17 in 10.0 mi SE 11.5 mph - N/A   Clear
11:34 AM 66.4 °F 57.6 °F 73% 30.17 in 10.0 mi SSE 9.2 mph - N/A   Clear
11:55 AM 68.0 °F 56.7 °F 67% 30.15 in 10.0 mi SSE 10.4 mph - N/A   Clear
12:15 PM 69.1 °F 56.1 °F 63% 30.15 in 10.0 mi SSE 13.8 mph 18.4 mph N/A   Clear
12:34 PM 70.2 °F 55.4 °F 59% 30.13 in 10.0 mi SSE 15.0 mph 23.0 mph N/A   Clear
12:55 PM 71.4 °F 55.4 °F 57% 30.13 in 10.0 mi SSE 13.8 mph 24.2 mph N/A   Clear
1:15 PM 72.5 °F 55.2 °F 54% 30.12 in 10.0 mi South 15.0 mph 20.7 mph N/A   Clear
1:34 PM 73.2 °F 54.5 °F 52% 30.11 in 10.0 mi South 16.1 mph 21.9 mph N/A   Clear
1:55 PM 73.9 °F 54.3 °F 50% 30.09 in 10.0 mi SSE 12.7 mph 19.6 mph N/A   Clear
2:15 PM 74.3 °F 54.3 °F 50% 30.08 in 10.0 mi South 12.7 mph 18.4 mph N/A   Clear
2:35 PM 74.8 °F 54.5 °F 49% 30.07 in 10.0 mi SSW 13.8 mph 19.6 mph N/A   Clear
2:55 PM 75.2 °F 53.1 °F 46% 30.06 in 10.0 mi South 13.8 mph - N/A   Clear
3:14 PM 75.6 °F 51.8 °F 43% 30.04 in 10.0 mi South 11.5 mph 19.6 mph N/A   Clear
3:35 PM 75.7 °F 52.2 °F 44% 30.03 in 10.0 mi South 9.2 mph 16.1 mph N/A   Clear
3:55 PM 76.3 °F 52.5 °F 43% 30.03 in 10.0 mi SSE 9.2 mph 17.3 mph N/A   Clear
4:14 PM 76.3 °F 51.1 °F 41% 30.02 in 10.0 mi SSE 15.0 mph - N/A   Clear
4:35 PM 75.6 °F 49.6 °F 40% 30.00 in 10.0 mi SSE 17.3 mph 25.3 mph N/A   Clear
4:55 PM 75.7 °F 50.0 °F 40% 30.00 in 10.0 mi SSE 13.8 mph 20.7 mph N/A   Clear
5:14 PM 74.1 °F 55.4 °F 52% 30.00 in 10.0 mi SE 15.0 mph - N/A   Clear
5:35 PM 73.4 °F 56.5 °F 55% 30.00 in 10.0 mi SE 13.8 mph 17.3 mph N/A   Clear
5:55 PM 72.7 °F 57.0 °F 58% 30.00 in 10.0 mi SE 15.0 mph 18.4 mph N/A   Clear
6:15 PM 70.9 °F 57.2 °F 62% 29.99 in 10.0 mi SSE 12.7 mph - N/A   Clear
6:35 PM 69.3 °F 57.7 °F 67% 29.99 in 10.0 mi SE 11.5 mph 18.4 mph N/A   Clear
6:54 PM 68.2 °F 58.1 °F 70% 30.00 in 10.0 mi SE 10.4 mph - N/A   Clear
7:15 PM 67.1 °F 58.1 °F 73% 30.00 in 10.0 mi SE 10.4 mph - N/A   Clear
7:35 PM 66.0 °F 58.1 °F 76% 29.99 in 10.0 mi SE 8.1 mph - N/A   Clear
7:54 PM 65.3 °F 57.9 °F 77% 29.98 in 10.0 mi SE 11.5 mph - N/A   Clear
8:15 PM 64.8 °F 57.6 °F 77% 29.98 in 10.0 mi SE 8.1 mph - N/A   Clear
8:35 PM 64.8 °F 57.6 °F 77% 29.98 in 10.0 mi SE 10.4 mph - N/A   Clear
8:54 PM 64.8 °F 57.4 °F 77% 29.98 in 10.0 mi SSE 10.4 mph 17.3 mph N/A   Clear
9:15 PM 64.4 °F 57.2 °F 77% 29.97 in 10.0 mi SSE 9.2 mph - N/A   Clear
9:35 PM 64.6 °F 56.8 °F 76% 29.96 in 10.0 mi SSE 13.8 mph 19.6 mph N/A   Clear
9:55 PM 64.8 °F 56.3 °F 74% 29.95 in 10.0 mi SSE 12.7 mph 20.7 mph N/A   Clear
10:15 PM 64.4 °F 56.3 °F 75% 29.95 in 10.0 mi SSE 11.5 mph 17.3 mph N/A   Clear
10:34 PM 64.0 °F 55.9 °F 75% 29.95 in 10.0 mi SSE 11.5 mph 17.3 mph N/A   Clear
10:55 PM 63.9 °F 55.8 °F 75% 29.94 in 10.0 mi South 9.2 mph 18.4 mph N/A   Clear
11:15 PM 63.3 °F 55.6 °F 76% 29.93 in 10.0 mi SSE 9.2 mph - N/A   Clear
11:34 PM 63.5 °F 55.4 °F 75% 29.92 in 10.0 mi SSE 12.7 mph - N/A   Clear
11:55 PM 63.9 °F 55.0 °F 73% 29.92 in 10.0 mi SSE 13.8 mph 20.7 mph N/A   Clear